Hourly Data Report for December 09, 2017

VICTORIA UNIVERSITY CS
BRITISH COLUMBIA

48°27'25.200" N
123°18'16.600" W
60.10 m
1018598
71783
WYJ

Download Data

Hourly Data (December 2017)
Hourly Data Report for December 9, 2017
TIME
LST
Temp Definition
°C
Dew Point Definition
°C
Rel Hum Definition
%
Precip. Amount Definition
mm

Wind Dir Definition
10's deg

Wind Spd Definition
km/h
Visibility Definition
km
Stn Press Definition
kPa
Hmdx Definition


Wind Chill Definition


Weather Definition


00:00 3.0 2.7 98 0.0 35 10   102.38     LegendNANA
01:00 2.4 2.2 98 0.0 35 8   102.34     LegendNANA
02:00 2.4 2.2 99 0.0 35 8   102.36     LegendNANA
03:00 2.1 1.9 99 0.0 34 7   102.36     LegendNANA
04:00 2.4 2.3 99 0.0 2 7   102.32     LegendNANA
05:00 3.1 3.0 99 0.0 1 7   102.31     LegendNANA
06:00 2.6 2.5 99 0.0 36 5   102.30     LegendNANA
07:00 3.0 2.8 99 0.0 1 8   102.26     LegendNANA
08:00 2.7 2.6 99 0.0 33 6   102.29     LegendNANA
09:00 2.7 2.6 99 0.0 35 5   102.29     LegendNANA
10:00 2.8 2.6 99 0.0 35 9   102.33     LegendNANA
11:00 4.2 3.9 98 0.0 36 9   102.33     LegendNANA
12:00 5.0 4.1 94 0.0 1 8   102.27     LegendNANA
13:00 6.5 4.0 84 0.0 36 8   102.24     LegendNANA
14:00 6.2 3.8 85 0.0 1 8   102.20     LegendNANA
15:00 6.3 4.5 88 0.0 1 6   102.18     LegendNANA
16:00 5.8 4.0 88 0.0 1 7   102.17     LegendNANA
17:00 5.2 3.9 91 0.0 1 5   102.17     LegendNANA
18:00 4.7 3.3 90 0.0 34 6   102.21     LegendNANA
19:00 4.8 4.0 94 0.0 35 6   102.20     LegendNANA
20:00 4.5 3.8 95 0.0 33 7   102.21     LegendNANA
21:00 4.3 3.6 96 0.0 36 4   102.21     LegendNANA
22:00 4.0 3.5 96 0.0 36 5   102.20     LegendNANA
23:00 4.4 3.8 96 0.0 35 6   102.28     LegendNANA

Notes on Data Quality.

Legend

  • E = Estimated
  • M = Missing
  • NA = Not Available*
  • [empty] = Indicates an unobserved value
Date modified: